Location: Newark
(51.0500°N, 12.4500°E)
Time: 19:28:18
(UTC+00:00)

Vanguard 2 Rocket - Visible Passes

Search period start: 16 February 2020 00:00
Search period end: 26 February 2020 00:00
Orbit: 554 x 3326 km, 32.9° (Epoch: 16 February)

Date Brightness Start Highest point End Pass type
(mag) Time Alt. Az. Time Alt. Az. Time Alt. Az.
16 Feb 9.9 19:53:03 10° SSW 19:59:11 18° S 19:59:11 18° S visible
17 Feb 9.8 18:53:05 10° S 19:01:26 17° SSE 19:03:16 16° SSE visible
17 Feb 10.1 21:05:29 10° SW 21:09:05 17° SSW 21:09:05 17° SSW visible
18 Feb 10.0 17:54:08 10° S 18:01:13 14° SSE 18:07:11 10° SE visible
18 Feb 9.7 20:04:23 10° SW 20:13:09 23° S 20:13:09 23° S visible
19 Feb 10.3 16:58:00 10° SSE 17:00:54 11° SE 17:03:39 10° SE visible
19 Feb 9.6 19:03:36 10° SSW 19:15:00 23° SSE 19:17:11 22° SSE visible
19 Feb 10.0 21:18:01 10° SW 21:23:00 20° SW 21:23:00 20° SW visible
20 Feb 9.8 18:03:23 10° SSW 18:14:39 21° SSE 18:21:12 14° SE visible
20 Feb 9.6 20:16:29 10° SW 20:27:00 28° S 20:27:00 28° S visible
21 Feb 10.2 17:04:06 10° S 17:14:11 17° SSE 17:22:34 10° ESE visible
21 Feb 9.5 19:15:10 10° SW 19:28:32 29° SSE 19:30:59 27° SSE visible
21 Feb 9.9 21:30:55 10° WSW 21:36:48 22° SW 21:36:48 22° SW visible
22 Feb 9.7 18:14:18 10° SSW 18:28:04 27° SSE 18:34:56 18° SE visible
22 Feb 9.5 20:29:04 10° WSW 20:40:44 31° SSW 20:40:44 31° SSW visible
22 Feb 10.5 22:46:22 10° WSW 22:46:33 10° WSW 22:46:33 10° WSW visible
23 Feb 10.0 17:14:03 10° SSW 17:27:27 24° SSE 17:38:03 10° ESE visible
23 Feb 9.4 19:27:23 10° SW 19:42:00 33° S 19:44:39 31° SSE visible
23 Feb 9.9 21:44:07 10° WSW 21:50:28 22° SW 21:50:28 22° SW visible
24 Feb 9.6 18:26:04 10° SW 18:41:27 32° SSE 18:48:33 22° SE visible
24 Feb 9.5 20:41:59 10° WSW 20:54:21 33° SSW 20:54:21 33° SSW visible
25 Feb 10.0 17:25:15 10° SSW 17:40:41 30° SSE 17:52:24 11° ESE visible
25 Feb 9.3 19:40:02 10° WSW 19:55:26 36° S 19:58:13 34° SSE visible
25 Feb 10.0 21:57:35 10° WSW 22:04:01 22° SW 22:04:01 22° SW visible
